Flag for North Macedonia

Past Weather in Ohrid, North Macedonia — Yesterday and Last 2 Weeks

Now
70 °F

Passing clouds.


Feels Like: 70 °F
Forecast: 78 / 59 °F
Wind: 15 mph from South

Location: Ohrid Airport

Current Time: Jul 15, 2020 at 12:21:24 am

Latest Report: Jul 14, 2020 at 9:00 pm


Visibility: N/A

Pressure: 29.95 "Hg (27.62 "Hg at 696m altitude)

Humidity: 64%

Dew Point: 57 °F

Location of OhridLocation

Past Weather in Ohrid — Graph

°F

Ohrid Temperature Yesterday

Maximum temperature yesterday: 75 °F (at 3:00 pm)
Minimum temperature yesterday: 57 °F (at 4:30 am)
Average temperature yesterday: 68 °F

High & Low Weather Summary for the Past Weeks

 TemperatureHumidityPressure
High88 °F (Jul 1, 3:30 pm)94% (Jul 6, 7:30 am)30.12 "Hg (Jul 6, 7:30 am)
Low54 °F (Jul 10, 6:00 am)25% (Jul 1, 3:30 pm)29.77 "Hg (Jul 6, 5:00 pm)
Average73 °F59%29.98 "Hg
* Reported Jun 30 7:30 am — Jul 14 9:00 pm, Ohrid. Weather by CustomWeather, © 2020

Note: Actual official high and low records may vary slightly from our data, if they occured in-between our weather recording intervals... More about our weather records

Ohrid Weather History for the Previous 24 Hours

Scroll right to see more
 ConditionsComfort  
Time TempWeatherWind HumidityBarometerVisibility
9:00 pm
Tue, Jul 14
70 °FPassing clouds.15 mph64%29.95 "HgN/A
8:30 pm70 °FPassing clouds.12 mph69%29.95 "HgN/A
8:00 pm70 °FScattered clouds.1 mph69%29.95 "HgN/A
7:30 pm72 °FScattered clouds.2 mph65%29.95 "HgN/A
7:00 pm72 °FScattered clouds.2 mph65%29.95 "HgN/A
6:30 pm72 °FScattered clouds.2 mph65%29.92 "HgN/A
6:00 pm75 °FPassing clouds.3 mph57%29.92 "HgN/A
5:30 pm75 °FPassing clouds.5 mph57%29.92 "HgN/A
5:00 pm75 °FPassing clouds.5 mph50%29.92 "HgN/A
4:30 pm75 °FPassing clouds.6 mph44%29.92 "HgN/A
4:00 pm75 °FPassing clouds.5 mph44%29.92 "HgN/A
3:30 pm75 °FPassing clouds.6 mph47%29.92 "HgN/A
3:00 pm75 °FPassing clouds.6 mph47%29.95 "HgN/A
2:30 pm73 °FPassing clouds.7 mph47%29.95 "HgN/A
12:30 pm73 °FScattered clouds.6 mph44%29.98 "HgN/A
12:00 pm72 °FScattered clouds.7 mph47%29.98 "HgN/A
11:30 am73 °FPassing clouds.3 mph41%29.98 "HgN/A
11:00 am72 °FPassing clouds.7 mph44%30.01 "HgN/A
10:30 am72 °FScattered clouds.3 mph41%30.01 "HgN/A
10:00 am70 °FScattered clouds.7 mph43%30.01 "HgN/A
9:00 am68 °FScattered clouds.5 mph46%30.01 "HgN/A
8:30 am63 °FPartly sunny.9 mph52%30.01 "HgN/A
8:00 am61 °FPartly sunny.9 mph55%30.01 "HgN/A
7:30 am61 °FPartly sunny.10 mph52%30.01 "HgN/A
7:00 am59 °FPartly sunny.8 mph55%30.01 "HgN/A
6:30 am59 °FPartly sunny.8 mph55%30.01 "HgN/A
6:00 am59 °FPartly sunny.8 mph55%30.01 "HgN/A
5:30 am59 °FPartly sunny.8 mph51%30.01 "HgN/A
5:00 am59 °FPassing clouds.8 mph51%30.01 "HgN/A
4:30 am57 °FPassing clouds.6 mph51%30.01 "HgN/A
4:00 am59 °FPassing clouds.9 mph51%30.01 "HgN/A
Weather by CustomWeather, © 2020

See weather overview